Regional Weather Roundup
Issued by NWS Spokane, WA

Home | Current Version | Previous Version | Text Only | Print | Product List | Glossary On
Versions: 1 2 3 4 5 6 7 8 9 10 11 12 13 14 15 16 17 18 19 20 21 22 23 24 25 26 27 28 29 30 31 32 33 34 35 36 37 38 39 40 41 42 43 44 45 46 47 48 49 50
757
NZUS01 KOTX 202110
RWROTX

Eastern Washington/Northern Idaho Roundup
National Weather Service, Spokane WA
200 PM PDT THU JUL 20 2017

Note: "fair" indicated few or no clouds below 12,000 feet with no
significant weather and/or obstructions to visibility.

...Northeast Washington and Northern Idaho Panhandle...

CITY           SKY/WX    TMP DP  RH WIND       PRES   REMARKS
Spokane Intl   FAIR      78  43  28 SW18G28   30.03F
Spokane Downto FAIR      81  43  26 SW15G29   30.02F
Coeur d Alene  CLOUDY    76  47  35 SW13G25   30.04F
Deer Park      FAIR      80  38  22 SW22G30   30.02S
Sandpoint      FAIR      79  43  27 SW12G21   30.00S
Bonners Ferry  FAIR      77  45  31 S14G21    29.97S

...Southeast Washington and southern Idaho Panhandle...

CITY           SKY/WX    TMP DP  RH WIND       PRES   REMARKS
Walla Walla    FAIR      83  42  23 SW14G22   30.05F
Pullman/Moscow FAIR      77  39  25 W13G29    30.08F
Lewiston       FAIR      85  45  24 N8G21     30.00F
Lowell           N/A     89  44  20 NE6       29.96F
Grangeville    FAIR      79  43  27 CALM      30.06F

...Columbia Basin...

CITY           SKY/WX    TMP DP  RH WIND       PRES   REMARKS
Ephrata        FAIR      80  41  24 SW16      29.99S
Moses Lake     FAIR      80  41  24 SW22G30   30.01R
Pasco          FAIR      83  46  27 W14       30.02F
Richland       FAIR      87  46  24 SW9G22    30.01S
Hermiston      FAIR      83  39  21 SW18      30.03F
Pendleton      FAIR      83  37  19 W13G23    30.06F

...East Slopes Cascades...

CITY           SKY/WX    TMP DP  RH WIND       PRES   REMARKS
The Dalles     FAIR      79  48  33 NW21G28   30.07F
Yakima         FAIR      82  44  26 NW13G23   30.04S
Ellensburg     FAIR      75  47  36 NW24G31   30.06F
Stampede Pass  CLOUDY    53  47  79 VRB7      30.20R
Wenatchee      FAIR      77  40  26 NW17G24   30.01S
Omak           FAIR      85  36  17 SW14G20   29.92S
Sunnyside        N/A     77  46  34 CALM      30.02F

...Southern British Columbia...

CITY           SKY/WX    TMP DP  RH WIND       PRES   REMARKS
Penticton      PTSUNNY   79  43  27 N3        29.92S
Castlegar      PTSUNNY   84  43  23 S18G26    29.88F
Cranbrook      PTSUNNY   82  43  24 S18G28    29.92S
Osoyoos          N/A     82  45  26 E2          N/A

...Western Montana...

CITY           SKY/WX    TMP DP  RH WIND       PRES   REMARKS
Kalispell      FAIR      86  43  22 S12G21    29.92F
Libby            N/A     82  39  21 S14G20    29.95F
Missoula       FAIR      89  39  17 SW12G25   29.95F

...Neighboring Cities...

CITY           SKY/WX    TMP DP  RH WIND       PRES   REMARKS
Seattle        FAIR      71  52  50 S10       30.15F
Portland       PTSUNNY   72  53  51 N7        30.16F
Boise          FAIR      89  42  19 NW12G18   30.02F
Great Falls    SUNNY     96  22   7 W20G28    29.87F HX  90
Calgary        MOSUNNY   82  36  18 SW17G33   29.83F



USA.gov is the U.S. government's official web portal to all federal, state and local government web resources and services.